Time,TemperatureF,DewpointF,PressureIn,WindDirection,WindDirectionDegrees,WindSpeedMPH,WindSpeedGustMPH,Humidity,HourlyPrecipIn,Conditions,Clouds,dailyrainin,SoftwareType,DateUTC
2013-04-28 00:01:00,39.0,14.0,30.27,North,10,5.0,5.0,35,0.00,,,0.00,,2013-04-28 06:01:00,
2013-04-28 00:12:00,39.0,14.0,30.27,North,10,5.0,5.0,35,0.00,,,0.00,,2013-04-28 06:12:00,
2013-04-28 00:21:00,39.0,14.0,30.27,North,355,3.0,6.0,36,0.00,,,0.00,,2013-04-28 06:21:00,
2013-04-28 00:32:00,38.0,14.0,30.27,North,349,5.0,6.0,37,0.00,,,0.00,,2013-04-28 06:32:00,
2013-04-28 00:41:00,38.0,14.0,30.27,North,349,5.0,6.0,37,0.00,,,0.00,,2013-04-28 06:41:00,
2013-04-28 00:51:00,38.0,14.0,30.28,North,355,3.0,5.0,37,0.00,,,0.00,,2013-04-28 06:51:00,
2013-04-28 01:01:00,37.0,14.0,30.27,North,355,5.0,6.0,38,0.00,,,0.00,,2013-04-28 07:01:00,
2013-04-28 01:11:00,37.0,14.0,30.27,North,355,5.0,6.0,38,0.00,,,0.00,,2013-04-28 07:11:00,
2013-04-28 01:21:00,37.0,14.0,30.27,NNW,347,5.0,8.0,38,0.00,,,0.00,,2013-04-28 07:21:00,
2013-04-28 01:31:00,37.0,14.0,30.27,NNW,346,6.0,7.0,38,0.00,,,0.00,,2013-04-28 07:31:00,
2013-04-28 01:42:00,37.0,14.0,30.27,NNW,346,6.0,7.0,38,0.00,,,0.00,,2013-04-28 07:42:00,
2013-04-28 01:52:00,37.0,14.0,30.27,North,354,8.0,10.0,38,0.00,,,0.00,,2013-04-28 07:52:00,
2013-04-28 02:01:00,36.0,15.0,30.26,NW,321,3.0,5.0,41,0.00,,,0.00,,2013-04-28 08:01:00,
2013-04-28 02:11:00,36.0,15.0,30.26,NW,321,3.0,5.0,41,0.00,,,0.00,,2013-04-28 08:11:00,
2013-04-28 02:21:00,35.0,14.0,30.26,NNW,333,5.0,6.0,42,0.00,,,0.00,,2013-04-28 08:21:00,
2013-04-28 02:32:00,36.0,13.0,30.26,NNW,332,5.0,6.0,39,0.00,,,0.00,,2013-04-28 08:32:00,
2013-04-28 02:42:00,36.0,13.0,30.26,NNW,332,5.0,6.0,39,0.00,,,0.00,,2013-04-28 08:42:00,
2013-04-28 02:51:00,36.0,14.0,30.25,NNW,330,7.0,8.0,40,0.00,,,0.00,,2013-04-28 08:51:00,
2013-04-28 03:01:00,36.0,14.0,30.25,NNW,337,7.0,9.0,40,0.00,,,0.00,,2013-04-28 09:01:00,
2013-04-28 03:11:00,36.0,14.0,30.25,NNW,337,7.0,9.0,40,0.00,,,0.00,,2013-04-28 09:11:00,
2013-04-28 03:21:00,35.0,14.0,30.25,North,356,3.0,3.0,41,0.00,,,0.00,,2013-04-28 09:21:00,
2013-04-28 03:32:00,34.0,13.0,30.24,NNW,329,5.0,6.0,42,0.00,,,0.00,,2013-04-28 09:32:00,
2013-04-28 03:42:00,34.0,13.0,30.24,NNW,329,5.0,6.0,42,0.00,,,0.00,,2013-04-28 09:42:00,
2013-04-28 03:53:00,34.0,13.0,30.24,NNW,334,5.0,6.0,42,0.00,,,0.00,,2013-04-28 09:53:00,
2013-04-28 04:02:00,33.0,13.0,30.24,North,355,2.0,7.0,43,0.00,,,0.00,,2013-04-28 10:02:00,
2013-04-28 04:12:00,33.0,13.0,30.24,North,355,2.0,7.0,43,0.00,,,0.00,,2013-04-28 10:12:00,
2013-04-28 04:22:00,34.0,13.0,30.24,North,354,3.0,6.0,41,0.00,,,0.00,,2013-04-28 10:22:00,
2013-04-28 04:32:00,34.0,13.0,30.24,NNW,331,3.0,6.0,41,0.00,,,0.00,,2013-04-28 10:32:00,
2013-04-28 04:42:00,34.0,13.0,30.24,NNW,331,3.0,6.0,41,0.00,,,0.00,,2013-04-28 10:42:00,
2013-04-28 04:52:00,34.0,13.0,30.23,NNW,347,3.0,5.0,41,0.00,,,0.00,,2013-04-28 10:52:00,
2013-04-28 05:02:00,33.0,12.0,30.23,NNW,328,2.0,5.0,42,0.00,,,0.00,,2013-04-28 11:02:00,
2013-04-28 05:11:00,33.0,12.0,30.23,NNW,328,2.0,5.0,42,0.00,,,0.00,,2013-04-28 11:11:00,
2013-04-28 05:21:00,33.0,12.0,30.23,North,355,3.0,5.0,42,0.00,,,0.00,,2013-04-28 11:21:00,
2013-04-28 05:32:00,33.0,12.0,30.23,NNW,347,6.0,8.0,42,0.00,,,0.00,,2013-04-28 11:32:00,
2013-04-28 05:42:00,33.0,12.0,30.23,NNW,347,6.0,8.0,42,0.00,,,0.00,,2013-04-28 11:42:00,
2013-04-28 05:52:00,34.0,13.0,30.23,NNW,333,5.0,9.0,41,0.00,,,0.00,,2013-04-28 11:52:00,
2013-04-28 06:01:00,34.0,12.0,30.23,NNW,345,6.0,10.0,40,0.00,,,0.00,,2013-04-28 12:01:00,
2013-04-28 06:11:00,34.0,12.0,30.23,NNW,345,6.0,10.0,40,0.00,,,0.00,,2013-04-28 12:11:00,
2013-04-28 06:21:00,34.0,12.0,30.23,NW,325,5.0,6.0,40,0.00,,,0.00,,2013-04-28 12:21:00,
2013-04-28 06:32:00,33.0,13.0,30.23,NW,315,3.0,5.0,44,0.00,,,0.00,,2013-04-28 12:32:00,
2013-04-28 06:42:00,33.0,13.0,30.23,NW,315,3.0,5.0,44,0.00,,,0.00,,2013-04-28 12:42:00,
2013-04-28 06:51:00,33.0,12.0,30.23,NNW,340,7.0,10.0,41,0.00,,,0.00,,2013-04-28 12:51:00,
2013-04-28 07:02:00,35.0,12.0,30.23,North,0,5.0,8.0,38,0.00,,,0.00,,2013-04-28 13:02:00,
2013-04-28 07:11:00,35.0,12.0,30.23,North,0,5.0,8.0,38,0.00,,,0.00,,2013-04-28 13:11:00,
2013-04-28 07:21:00,37.0,13.0,30.23,North,355,5.0,7.0,36,0.00,,,0.00,,2013-04-28 13:21:00,
2013-04-28 07:31:00,39.0,12.0,30.24,North,356,5.0,7.0,33,0.00,,,0.00,,2013-04-28 13:31:00,
2013-04-28 07:42:00,39.0,12.0,30.24,North,356,5.0,7.0,33,0.00,,,0.00,,2013-04-28 13:42:00,
2013-04-28 07:52:00,40.0,13.0,30.24,North,1,2.0,3.0,33,0.00,,,0.00,,2013-04-28 13:52:00,
2013-04-28 08:01:00,43.0,14.0,30.24,NNE,22,6.0,8.0,31,0.00,,,0.00,,2013-04-28 14:01:00,
2013-04-28 08:21:00,44.0,15.0,30.24,North,11,6.0,12.0,30,0.00,,,0.00,,2013-04-28 14:21:00,
2013-04-28 08:31:00,46.0,16.0,30.23,NNE,27,3.0,6.0,29,0.00,,,0.00,,2013-04-28 14:31:00,
2013-04-28 08:41:00,46.0,16.0,30.23,NNE,27,3.0,6.0,29,0.00,,,0.00,,2013-04-28 14:41:00,
2013-04-28 08:52:00,48.0,16.0,30.23,NNE,27,1.0,3.0,27,0.00,,,0.00,,2013-04-28 14:52:00,
2013-04-28 09:01:00,51.0,16.0,30.23,NNE,21,1.0,3.0,25,0.00,,,0.00,,2013-04-28 15:01:00,
2013-04-28 09:21:00,53.0,18.0,30.23,East,89,0.0,2.0,25,0.00,,,0.00,,2013-04-28 15:21:00,
2013-04-28 09:32:00,58.0,20.0,30.23,East,91,3.0,5.0,23,0.00,,,0.00,,2013-04-28 15:32:00,
2013-04-28 10:03:00,62.0,19.0,30.22,ESE,102,7.0,10.0,19,0.00,,,0.00,,2013-04-28 16:03:00,
2013-04-28 10:23:00,62.0,18.0,30.22,SE,124,12.0,13.0,18,0.00,,,0.00,,2013-04-28 16:23:00,
2013-04-28 10:32:00,63.0,18.0,30.22,ESE,105,7.0,12.0,17,0.00,,,0.00,,2013-04-28 16:32:00,
2013-04-28 10:52:00,64.0,18.0,30.22,ESE,111,3.0,5.0,17,0.00,,,0.00,,2013-04-28 16:52:00,
2013-04-28 11:02:00,66.0,19.0,30.22,East,80,9.0,12.0,16,0.00,,,0.00,,2013-04-28 17:02:00,
2013-04-28 11:21:00,67.0,18.0,30.22,ESE,110,6.0,7.0,15,0.00,,,0.00,,2013-04-28 17:21:00,
2013-04-28 11:32:00,68.0,19.0,30.22,East,80,3.0,6.0,15,0.00,,,0.00,,2013-04-28 17:32:00,
2013-04-28 11:51:00,69.0,19.0,30.22,SE,142,5.0,7.0,15,0.00,,,0.00,,2013-04-28 17:51:00,
2013-04-28 12:01:00,71.0,19.0,30.21,SE,131,7.0,17.0,14,0.00,,,0.00,,2013-04-28 18:01:00,
2013-04-28 12:22:00,71.0,18.0,30.21,SE,146,8.0,12.0,13,0.00,,,0.00,,2013-04-28 18:22:00,
2013-04-28 12:32:00,72.0,18.0,30.21,SE,124,7.0,9.0,13,0.00,,,0.00,,2013-04-28 18:32:00,
2013-04-28 13:01:00,74.0,20.0,30.20,South,180,5.0,6.0,13,0.00,,,0.00,,2013-04-28 19:01:00,
2013-04-28 13:21:00,75.0,21.0,30.19,WSW,238,3.0,6.0,13,0.00,,,0.00,,2013-04-28 19:21:00,
2013-04-28 13:31:00,77.0,22.0,30.19,SSE,150,6.0,9.0,13,0.00,,,0.00,,2013-04-28 19:31:00,
2013-04-28 13:52:00,76.0,22.0,30.18,ESE,113,7.0,9.0,13,0.00,,,0.00,,2013-04-28 19:52:00,
2013-04-28 14:01:00,75.0,21.0,30.18,SSE,161,8.0,13.0,13,0.00,,,0.00,,2013-04-28 20:01:00,
2013-04-28 14:21:00,75.0,23.0,30.18,SE,140,7.0,14.0,14,0.00,,,0.00,,2013-04-28 20:21:00,
2013-04-28 14:32:00,78.0,23.0,30.17,ESE,118,7.0,12.0,13,0.00,,,0.00,,2013-04-28 20:32:00,
2013-04-28 15:01:00,73.0,23.0,30.16,SSW,207,3.0,6.0,15,0.00,,,0.00,,2013-04-28 21:01:00,
2013-04-28 15:21:00,72.0,22.0,30.16,SE,134,7.0,9.0,15,0.00,,,0.00,,2013-04-28 21:21:00,
2013-04-28 15:32:00,75.0,21.0,30.16,SSE,168,2.0,5.0,13,0.00,,,0.00,,2013-04-28 21:32:00,
2013-04-28 15:52:00,75.0,23.0,30.15,South,189,7.0,8.0,14,0.00,,,0.00,,2013-04-28 21:52:00,
2013-04-28 16:02:00,76.0,22.0,30.15,South,170,5.0,8.0,13,0.00,,,0.00,,2013-04-28 22:02:00,
2013-04-28 16:22:00,76.0,23.0,30.14,South,172,2.0,5.0,14,0.00,,,0.00,,2013-04-28 22:22:00,
2013-04-28 16:33:00,76.0,22.0,30.14,SW,234,2.0,3.0,13,0.00,,,0.00,,2013-04-28 22:33:00,
2013-04-28 16:52:00,77.0,22.0,30.14,ESE,119,2.0,3.0,13,0.00,,,0.00,,2013-04-28 22:52:00,
2013-04-28 17:02:00,83.0,23.0,30.13,SW,220,2.0,2.0,11,0.00,,,0.00,,2013-04-28 23:02:00,
2013-04-28 17:21:00,85.0,25.0,30.13,ESE,102,3.0,3.0,11,0.00,,,0.00,,2013-04-28 23:21:00,
2013-04-28 17:32:00,87.0,26.0,30.13,ESE,118,0.0,3.0,11,0.00,,,0.00,,2013-04-28 23:32:00,
2013-04-28 17:51:00,88.0,25.0,30.13,SE,125,7.0,10.0,10,0.00,,,0.00,,2013-04-28 23:51:00,
2013-04-28 18:01:00,75.0,17.0,30.13,NW,319,3.0,5.0,11,0.00,,,0.00,,2013-04-29 00:01:00,
2013-04-28 18:21:00,73.0,15.0,30.13,North,358,6.0,7.0,11,0.00,,,0.00,,2013-04-29 00:21:00,
2013-04-28 18:32:00,71.0,14.0,30.13,NNW,339,6.0,15.0,11,0.00,,,0.00,,2013-04-29 00:32:00,
2013-04-28 18:52:00,69.0,12.0,30.13,NNW,339,7.0,12.0,11,0.00,,,0.00,,2013-04-29 00:52:00,
2013-04-28 19:01:00,61.0,13.0,30.14,North,351,8.0,13.0,15,0.00,,,0.00,,2013-04-29 01:01:00,
2013-04-28 19:11:00,59.0,11.0,30.13,North,356,8.0,12.0,15,0.00,,,0.00,,2013-04-29 01:11:00,
2013-04-28 19:21:00,59.0,11.0,30.13,North,356,8.0,12.0,15,0.00,,,0.00,,2013-04-29 01:21:00,
2013-04-28 19:32:00,57.0,11.0,30.14,NNW,330,7.0,12.0,16,0.00,,,0.00,,2013-04-29 01:32:00,
2013-04-28 19:41:00,57.0,11.0,30.14,NNW,330,7.0,12.0,16,0.00,,,0.00,,2013-04-29 01:41:00,
2013-04-28 19:52:00,56.0,9.0,30.14,NNW,334,6.0,10.0,15,0.00,,,0.00,,2013-04-29 01:52:00,
2013-04-28 20:01:00,55.0,11.0,30.14,NNW,337,5.0,7.0,17,0.00,,,0.00,,2013-04-29 02:01:00,
2013-04-28 20:11:00,55.0,11.0,30.14,NNW,337,5.0,7.0,17,0.00,,,0.00,,2013-04-29 02:11:00,
2013-04-28 20:21:00,54.0,11.0,30.15,NW,315,5.0,8.0,18,0.00,,,0.00,,2013-04-29 02:21:00,
2013-04-28 20:31:00,52.0,11.0,30.15,NNW,330,2.0,5.0,19,0.00,,,0.00,,2013-04-29 02:31:00,
2013-04-28 20:41:00,52.0,11.0,30.15,NNW,330,2.0,5.0,19,0.00,,,0.00,,2013-04-29 02:41:00,
2013-04-28 20:51:00,52.0,11.0,30.15,NNW,346,0.0,3.0,19,0.00,,,0.00,,2013-04-29 02:51:00,
2013-04-28 21:01:00,51.0,11.0,30.16,North,356,0.0,1.0,20,0.00,,,0.00,,2013-04-29 03:01:00,
2013-04-28 21:11:00,51.0,11.0,30.16,North,356,0.0,1.0,20,0.00,,,0.00,,2013-04-29 03:11:00,
2013-04-28 21:21:00,50.0,12.0,30.16,North,3,1.0,3.0,21,0.00,,,0.00,,2013-04-29 03:21:00,
2013-04-28 21:33:00,49.0,14.0,30.16,NNW,345,5.0,7.0,24,0.00,,,0.00,,2013-04-29 03:33:00,
2013-04-28 21:42:00,49.0,14.0,30.16,NNW,345,5.0,7.0,24,0.00,,,0.00,,2013-04-29 03:42:00,
2013-04-28 21:52:00,49.0,14.0,30.16,North,352,3.0,5.0,24,0.00,,,0.00,,2013-04-29 03:52:00,
2013-04-28 22:02:00,47.0,15.0,30.16,North,358,5.0,7.0,27,0.00,,,0.00,,2013-04-29 04:02:00,
2013-04-28 22:12:00,47.0,15.0,30.16,North,358,5.0,7.0,27,0.00,,,0.00,,2013-04-29 04:12:00,
2013-04-28 22:22:00,46.0,14.0,30.16,North,1,6.0,8.0,27,0.00,,,0.00,,2013-04-29 04:22:00,
2013-04-28 22:32:00,46.0,16.0,30.16,North,358,6.0,8.0,29,0.00,,,0.00,,2013-04-29 04:32:00,
2013-04-28 22:43:00,46.0,16.0,30.16,North,358,6.0,8.0,29,0.00,,,0.00,,2013-04-29 04:43:00,
2013-04-28 22:52:00,45.0,15.0,30.16,North,358,8.0,8.0,30,0.00,,,0.00,,2013-04-29 04:52:00,
2013-04-28 23:02:00,44.0,16.0,30.16,North,359,5.0,10.0,32,0.00,,,0.00,,2013-04-29 05:02:00,
2013-04-28 23:12:00,44.0,16.0,30.16,North,359,5.0,10.0,32,0.00,,,0.00,,2013-04-29 05:12:00,
2013-04-28 23:22:00,44.0,17.0,30.16,North,351,6.0,10.0,33,0.00,,,0.00,,2013-04-29 05:22:00,
2013-04-28 23:32:00,43.0,16.0,30.16,North,355,6.0,7.0,33,0.00,,,0.00,,2013-04-29 05:32:00,
2013-04-28 23:42:00,43.0,16.0,30.16,North,355,6.0,7.0,33,0.00,,,0.00,,2013-04-29 05:42:00,
2013-04-28 23:52:00,43.0,16.0,30.16,North,357,5.0,9.0,33,0.00,,,0.00,,2013-04-29 05:52:00,